User: anonymous   Login
Location: Vancouver
(49.2500°N, 123.1330°W)
Time: 09:28:49
(UTC-07:00)
Language:

Transit 2A Rocket - Orbit

View from above orbital plane
View from above orbital plane
View from above satellite
View from above satellite

Ground track
Ground track

The orbit data is extracted from the following two-line orbital elements,

1 00047U 60007C   14295.11988307  .00001850  00000-0  44282-3 0  3409
2 00047 066.6666 275.6117 0228762 011.9508 348.6894 14.41258569837374
Epoch (UTC): 22 October 2014 02:52:37
Eccentricity: 0.0228762
inclination: 66.6666°
perigee height: 591 km
apogee height: 917 km
right ascension of ascending node: 275.6117°
argument of perigee: 11.9508°
revolutions per day: 14.41258569
mean anomaly at epoch: 348.6894°
orbit number at epoch: 83737

The dashed part of the orbit path shows where the satellite is in the earth's shadow,  

DLR